Weather History for KROC - October, 2013

Change the Weather History Date:

Sunday, October 13, 2013

  Actual Average Record
Temperature  
Mean Temperature 62 °F 51 °F  
Max Temperature 71 °F 61 °F 83 °F (1969)
Min Temperature 53 °F 42 °F 26 °F (1993)
Degree Days  
Heating Degree Days 3 14  
Month to date heating degree days 66 152  
Since 1 July heating degree days 256 333  
Cooling Degree Days 0 0  
Month to date cooling degree days 10 0  
Year to date cooling degree days 660 534  
Growing Degree Days 10 (Base 50)    
Moisture  
Dew Point 54 °F    
Average Humidity 75    
Maximum Humidity 93    
Minimum Humidity 57    
Precipitation  
Precipitation 0.17 in 0.09 in 1.03 in (1986)
Month to date precipitation 1.61 1.20  
Year to date precipitation 29.23 27.18  
Snow  
Snow 0.00 in 0.00 in 0.30 in (2006)
Month to date snowfall 0.0 0.0  
Since 1 July snowfall 0.0 0.0  
Since 1 September snowfall 0.0 0.0  
Snow Depth 0.00 in    
Sea Level Pressure  
Sea Level Pressure 30.26 in    
Wind  
Wind Speed 7 mph (South)    
Max Wind Speed 14 mph    
Max Gust Speed 17 mph    
Visibility 9 miles    
Events Rain    
T = Trace of Precipitation, MM = Missing Value Source: NWS Daily Summary

Daily Weather History Graph

Daily Weather History Graph

Search for Another Location

Airport or City:

Trip Planner

Search our weather history database for the weather conditions in past years. The results will help you decide how hot, cold, wet, or windy it might be!

Date:

Astronomy

Oct. 13, 2013 Rise Set
Actual Time 7:22 AM EDT 6:30 PM EDT
Civil Twilight 6:53 AM EDT 6:59 PM EDT
Nautical Twilight 6:20 AM EDT 7:32 PM EDT
Astronomical Twilight 5:47 AM EDT 8:05 PM EDT
Moon 3:28 PM EDT (10/13) 1:21 AM EDT (10/13)
Length of Visible Light 12h 05m
Length of Day
11h 08m
Waxing Gibbous, 69% of the Moon is Illuminated
Oct 13
Waxing Gibbous
Oct 18
Full
Oct 26
Last Quarter
Nov 3
New
Nov 10
First Quarter

Hourly Weather History & Observations

Time (EDT) Temp. Dew Point Humidity Pressure Visibility Wind Dir Wind Speed Gust Speed Precip Events Conditions
12:54 AM 55.0 °F 42.1 °F 62% 30.22 in 10.0 mi SSE 4.6 mph - N/A   Clear
1:54 AM 57.0 °F 42.1 °F 57% 30.21 in 10.0 mi SSE 3.5 mph - N/A   Clear
2:54 AM 55.0 °F 42.1 °F 62% 30.22 in 10.0 mi SE 5.8 mph - N/A   Clear
3:54 AM 55.0 °F 44.1 °F 67% 30.23 in 10.0 mi SE 8.1 mph - N/A   Partly Cloudy
4:54 AM 57.0 °F 46.0 °F 67% 30.24 in 10.0 mi SE 8.1 mph - N/A   Mostly Cloudy
5:54 AM 57.0 °F 48.0 °F 72% 30.25 in 10.0 mi SE 5.8 mph - N/A   Overcast
6:54 AM 55.9 °F 48.0 °F 75% 30.26 in 10.0 mi SSE 4.6 mph - N/A   Mostly Cloudy
7:54 AM 57.0 °F 48.9 °F 74% 30.27 in 10.0 mi SSE 6.9 mph - N/A   Mostly Cloudy
8:54 AM 60.1 °F 51.1 °F 72% 30.28 in 10.0 mi SSE 3.5 mph - N/A   Mostly Cloudy
9:54 AM 64.0 °F 54.0 °F 70% 30.29 in 10.0 mi South 9.2 mph - N/A   Mostly Cloudy
10:54 AM 68.0 °F 55.9 °F 65% 30.29 in 10.0 mi SSW 8.1 mph - N/A   Mostly Cloudy
11:54 AM 69.1 °F 55.9 °F 63% 30.29 in 10.0 mi South 6.9 mph - N/A   Mostly Cloudy
12:54 PM 69.1 °F 57.9 °F 68% 30.28 in 10.0 mi SSW 10.4 mph - N/A   Mostly Cloudy
1:54 PM 69.1 °F 57.9 °F 68% 30.26 in 10.0 mi South 9.2 mph - N/A   Mostly Cloudy
2:54 PM 66.9 °F 59.0 °F 76% 30.26 in 10.0 mi SSW 9.2 mph - N/A   Overcast
3:54 PM 66.0 °F 60.1 °F 81% 30.26 in 7.0 mi SW 9.2 mph - 0.00 in   Light Drizzle
4:54 PM 64.9 °F 60.1 °F 84% 30.26 in 10.0 mi South 8.1 mph - 0.00 in   Overcast
5:54 PM 66.0 °F 61.0 °F 84% 30.25 in 10.0 mi South 8.1 mph - N/A   Overcast
6:54 PM 64.9 °F 60.1 °F 84% 30.26 in 10.0 mi SSW 5.8 mph - N/A   Overcast
7:54 PM 64.0 °F 60.1 °F 87% 30.27 in 5.0 mi SSW 8.1 mph - 0.00 in Rain Light Rain
8:20 PM 62.6 °F 60.8 °F 94% 30.26 in 10.0 mi SSW 4.6 mph - 0.00 in   Overcast
8:54 PM 63.0 °F 60.1 °F 90% 30.27 in 9.0 mi SSW 6.9 mph - 0.01 in Rain Light Rain
9:21 PM 62.6 °F 60.8 °F 94% 30.27 in 9.0 mi SSW 10.4 mph - 0.00 in Rain Light Rain
9:54 PM 62.1 °F 60.1 °F 93% 30.28 in 8.0 mi SSW 8.1 mph - 0.00 in Rain Light Rain
10:54 PM 61.0 °F 59.0 °F 93% 30.28 in 9.0 mi SSW 6.9 mph - 0.01 in   Overcast
11:24 PM 60.8 °F 59.0 °F 94% 30.27 in 2.5 mi SSW 9.2 mph - 0.04 in Rain Heavy Rain
11:38 PM 60.8 °F 59.0 °F 94% 30.27 in 4.0 mi SSW 9.2 mph - 0.06 in Rain Light Rain
11:54 PM 61.0 °F 59.0 °F 93% 30.28 in 5.0 mi SSW 9.2 mph - 0.07 in Rain Rain